DW5657 Weather Reports


Display with metric or nautical units.
time (UTC)temp
F
wind
direction
speed
MPH
gust
MPH
rain 1hr
in
rain 24hr
in
rain mn
in
humidity
%
barometer
mb
20260831151705 84 206 4.0 7.0 0.00 0.00 0.00 71 1018.0
20260831151204 84 225 3.0 6.0 0.00 0.00 0.00 71 1018.0
20260831150705 84 206 3.0 8.0 0.00 0.00 0.00 71 1018.1
20260831150204 83 222 3.0 8.0 0.00 0.00 0.00 71 1018.1
20260831145703 83 227 4.0 9.0 0.00 0.00 0.00 72 1018.1
20260831145203 82 225 2.0 9.0 0.00 0.00 0.00 73 1018.1
20260831144704 82 242 3.0 7.0 0.00 0.00 0.00 75 1018.1
20260831144204 81 218 3.0 7.0 0.00 0.00 0.00 75 1018.1
20260831143704 81 228 2.0 5.0 0.00 0.00 0.00 76 1018.1
20260831143203 80 248 0.0 3.0 0.00 0.00 0.00 77 1018.0
20260831142203 80 120 2.0 5.0 0.00 0.00 0.00 77 1017.8
20260831141704 80 81 2.0 5.0 0.00 0.00 0.00 77 1017.8
20260831140704 79 44 0.0 1.0 0.00 0.00 0.00 77 1017.8
20260831140205 79 57 0.0 3.0 0.00 0.00 0.00 78 1017.9
20260831135704 79 63 1.0 5.0 0.00 0.00 0.00 78 1017.9
20260831135204 79 65 0.0 2.0 0.00 0.00 0.00 78 1017.8
20260831134204 79 40 0.0 2.0 0.00 0.00 0.00 78 1017.8
20260831133704 78 29 2.0 6.0 0.00 0.00 0.00 78 1017.8
20260831133203 78 29 2.0 5.0 0.00 0.00 0.00 78 1017.8
20260831132703 78 36 1.0 3.0 0.00 0.00 0.00 78 1017.9
20260831132204 78 33 0.0 0.0 0.00 0.00 0.00 79 1017.8
20260831131704 78 34 0.0 3.0 0.00 0.00 0.00 79 1017.7
20260831131203 78 35 1.0 3.0 0.00 0.00 0.00 79 1017.8
20260831130704 78 35 0.0 3.0 0.00 0.00 0.00 79 1017.7
20260831130203 77 56 1.0 3.0 0.00 0.00 0.00 79 1017.7
20260831125205 77 232 2.0 6.0 0.00 0.00 0.00 81 1017.6
20260831124703 76 213 1.0 5.0 0.00 0.00 0.00 81 1017.6
20260831124204 76 65 0.0 0.0 0.00 0.00 0.00 82 1017.6
20260831123705 76 47 0.0 0.0 0.00 0.00 0.00 82 1017.6
20260831123204 75 39 0.0 0.0 0.00 0.00 0.00 82 1017.5
20260831122203 75 34 0.0 0.0 0.00 0.00 0.00 82 1017.5
20260831121704 75 32 0.0 0.0 0.00 0.00 0.00 81 1017.5
20260831121204 75 33 0.0 0.0 0.00 0.00 0.00 81 1017.5
20260831120704 75 32 0.0 0.0 0.00 0.00 0.00 81 1017.5
20260831120205 75 34 0.0 0.0 0.00 0.00 0.00 81 1017.5
20260831115704 75 34 0.0 0.0 0.00 0.00 0.00 81 1017.5
20260831114704 75 34 0.0 0.0 0.00 0.00 0.00 81 1017.3
20260831114204 75 35 0.0 0.0 0.00 0.00 0.00 81 1017.2
20260831113705 75 35 0.0 0.0 0.00 0.00 0.00 80 1017.2
20260831113205 75 36 0.0 0.0 0.00 0.00 0.00 80 1017.2
20260831112704 75 36 0.0 0.0 0.00 0.00 0.00 80 1017.1
20260831112204 75 36 0.0 0.0 0.00 0.00 0.00 80 1017.1
20260831111704 75 36 0.0 0.0 0.00 0.00 0.00 80 1017.1
20260831111204 75 24 0.0 0.0 0.00 0.00 0.00 79 1017.0
20260831110704 75 24 0.0 0.0 0.00 0.00 0.00 79 1017.0
20260831105705 75 24 0.0 0.0 0.00 0.00 0.00 79 1016.9
20260831105204 75 24 0.0 0.0 0.00 0.00 0.00 79 1016.8
20260831104705 75 24 0.0 0.0 0.00 0.00 0.00 78 1016.8
20260831104204 75 24 0.0 0.0 0.00 0.00 0.00 78 1016.8
20260831103704 75 24 0.0 0.0 0.00 0.00 0.00 78 1016.8
20260831103204 76 23 0.0 0.0 0.00 0.00 0.00 78 1016.7
20260831102203 76 23 0.0 0.0 0.00 0.00 0.00 78 1016.6
20260831101205 76 24 0.0 0.0 0.00 0.00 0.00 78 1016.6
20260831100703 76 24 0.0 0.0 0.00 0.00 0.00 77 1016.5
20260831100204 76 23 0.0 0.0 0.00 0.00 0.00 77 1016.6
20260831095704 76 23 0.0 0.0 0.00 0.00 0.00 77 1016.6
20260831095203 76 23 0.0 0.0 0.00 0.00 0.00 77 1016.6
20260831094705 76 23 0.0 0.0 0.00 0.00 0.00 77 1016.6
20260831093704 76 23 0.0 0.0 0.00 0.00 0.00 77 1016.7
20260831093204 76 24 0.0 0.0 0.00 0.00 0.00 77 1016.6
20260831092204 76 24 0.0 0.0 0.00 0.00 0.00 77 1016.6
20260831091704 76 25 0.0 0.0 0.00 0.00 0.00 77 1016.6
20260831091204 76 25 0.0 0.0 0.00 0.00 0.00 77 1016.6
20260831090704 76 24 0.0 0.0 0.00 0.00 0.00 77 1016.6
20260831090204 76 24 0.0 0.0 0.00 0.00 0.00 77 1016.6
20260831085704 76 37 0.0 0.0 0.00 0.00 0.00 77 1016.6
20260831084704 75 37 0.0 0.0 0.00 0.00 0.00 77 1016.4
20260831083704 75 28 0.0 0.0 0.00 0.00 0.00 78 1016.3
20260831082704 75 41 0.0 1.0 0.00 0.00 0.00 78 1016.1
20260831082204 75 25 0.0 1.0 0.00 0.00 0.00 79 1016.0
20260831081704 75 25 0.0 1.0 0.00 0.00 0.00 79 1016.0
20260831081204 75 24 0.0 3.0 0.00 0.00 0.00 79 1015.9
20260831080703 75 21 0.0 1.0 0.00 0.00 0.00 80 1015.9
20260831080203 75 24 0.0 1.0 0.00 0.00 0.00 80 1015.9
20260831075704 75 24 0.0 0.0 0.00 0.00 0.00 80 1016.0
20260831075204 75 25 0.0 0.0 0.00 0.00 0.00 80 1016.0
20260831073704 75 32 0.0 0.0 0.00 0.00 0.00 81 1016.1
20260831073203 75 32 0.0 0.0 0.00 0.00 0.00 81 1016.1
20260831072705 75 32 0.0 0.0 0.00 0.00 0.00 81 1016.2
20260831072205 75 32 0.0 0.0 0.00 0.00 0.00 81 1016.2
20260831071704 75 32 0.0 0.0 0.00 0.00 0.00 81 1016.2
20260831071205 74 32 0.0 0.0 0.00 0.00 0.00 81 1016.2
20260831070705 74 32 0.0 0.0 0.00 0.00 0.00 81 1016.3
20260831070203 74 34 0.0 0.0 0.00 0.00 0.00 82 1016.3
20260831065704 74 34 0.0 0.0 0.00 0.00 0.00 82 1016.4
20260831065204 74 35 0.0 0.0 0.00 0.00 0.00 82 1016.4
20260831064205 74 40 0.0 0.0 0.00 0.00 0.00 82 1016.4
20260831063704 74 41 0.0 0.0 0.00 0.00 0.00 82 1016.6
20260831063204 74 43 0.0 0.0 0.00 0.00 0.00 82 1016.8
20260831061704 75 44 0.0 0.0 0.00 0.00 0.00 82 1017.0
20260831061204 75 44 0.0 0.0 0.00 0.00 0.00 82 1017.0
20260831060204 75 44 0.0 0.0 0.00 0.00 0.00 82 1017.1
20260831055204 75 44 0.0 0.0 0.00 0.00 0.00 80 1017.0
20260831053205 75 43 0.0 0.0 0.00 0.00 0.00 80 1016.9
20260831052704 76 43 0.0 0.0 0.00 0.00 0.00 79 1016.9
20260831052204 76 45 0.0 0.0 0.00 0.00 0.00 79 1016.9
20260831051704 76 43 0.0 0.0 0.00 0.00 0.00 79 1017.0
20260831051204 76 42 0.0 0.0 0.00 0.00 0.00 80 1017.0
20260831045704 76 42 0.0 0.0 0.00 0.00 0.00 78 1016.7
20260831045203 76 42 0.0 0.0 0.00 0.00 0.00 78 1016.7
20260831044704 77 41 0.0 0.0 0.00 0.00 0.00 78 1016.7
20260831043705 77 40 0.0 0.0 0.00 0.00 0.00 77 1016.8
20260831043204 77 39 0.0 0.0 0.00 0.00 0.00 77 1016.8
20260831042704 77 39 0.0 0.0 0.00 0.00 0.00 77 1016.9
20260831042204 77 53 0.0 0.0 0.00 0.00 0.00 77 1016.9
20260831041204 77 49 0.0 0.0 0.00 0.00 0.00 77 1016.9
20260831035704 78 45 0.0 0.0 0.00 0.00 0.00 76 1016.9
20260831035204 78 43 0.0 0.0 0.00 0.00 0.00 76 1016.9
20260831034704 78 44 0.0 0.0 0.00 0.00 0.00 75 1017.0
20260831034204 78 43 0.0 0.0 0.00 0.00 0.00 75 1017.1
20260831033705 78 44 0.0 0.0 0.00 0.00 0.00 75 1017.1
20260831033204 78 44 0.0 0.0 0.00 0.00 0.00 75 1017.1
20260831032204 78 48 0.0 0.0 0.00 0.00 0.00 74 1017.1
20260831031704 78 46 0.0 0.0 0.00 0.00 0.00 74 1017.0
20260831031204 78 45 0.0 0.0 0.00 0.00 0.00 74 1016.9
20260831030704 78 44 0.0 0.0 0.00 0.00 0.00 74 1017.0
20260831030204 78 43 0.0 0.0 0.00 0.00 0.00 73 1017.0
20260831025705 78 44 0.0 0.0 0.00 0.00 0.00 73 1017.0
20260831025204 79 43 0.0 0.0 0.00 0.00 0.00 72 1017.1
20260831024704 79 43 0.0 0.0 0.00 0.00 0.00 72 1017.0
20260831024204 79 44 0.0 0.0 0.00 0.00 0.00 71 1017.0
20260831023704 79 42 0.0 0.0 0.00 0.00 0.00 71 1017.0
20260831023205 79 43 0.0 0.0 0.00 0.00 0.00 70 1017.0
20260831022704 79 43 0.0 0.0 0.00 0.00 0.00 70 1017.0
20260831021703 79 43 0.0 0.0 0.00 0.00 0.00 68 1017.0
20260831021204 79 43 0.0 0.0 0.00 0.00 0.00 68 1017.0
20260831020704 79 41 0.0 0.0 0.00 0.00 0.00 69 1017.0
20260831015204 80 42 0.0 0.0 0.00 0.00 0.00 66 1016.9
20260831014704 80 42 0.0 0.0 0.00 0.00 0.00 66 1016.9
20260831013704 80 42 0.0 0.0 0.00 0.00 0.00 65 1016.9
20260831013204 81 43 0.0 0.0 0.00 0.00 0.00 65 1016.9
20260831012706 81 41 0.0 0.0 0.00 0.00 0.00 65 1016.9
20260831012204 81 37 0.0 0.0 0.00 0.00 0.00 65 1016.8
20260831011704 82 42 0.0 0.0 0.00 0.00 0.00 65 1016.7
20260831011204 82 43 0.0 0.0 0.00 0.00 0.00 65 1016.7
20260831010705 82 41 0.0 0.0 0.00 0.00 0.00 65 1016.7
20260831010205 82 38 0.0 0.0 0.00 0.00 0.00 64 1016.7
20260831005704 83 42 0.0 0.0 0.00 0.00 0.00 63 1016.6
20260831005204 83 40 0.0 0.0 0.00 0.00 0.00 62 1016.5
20260831004704 83 37 0.0 0.0 0.00 0.00 0.00 61 1016.3
20260831004205 84 36 0.0 0.0 0.00 0.00 0.00 61 1016.3
20260831003704 84 35 0.0 0.0 0.00 0.00 0.00 61 1016.3
20260831003204 84 32 0.0 0.0 0.00 0.00 0.00 59 1016.4
20260831002704 85 37 0.0 0.0 0.00 0.00 0.00 59 1016.3
20260831002204 85 40 0.0 0.0 0.00 0.00 0.00 59 1016.3
20260831001704 85 45 0.0 0.0 0.00 0.00 0.00 58 1016.3
20260831001204 85 50 0.0 0.0 0.00 0.00 0.00 58 1016.3
20260831000204 86 65 0.0 0.0 0.00 0.00 0.00 57 1016.2
20260830235704 86 72 0.0 0.0 0.00 0.00 0.00 56 1016.3
20260830235205 86 79 0.0 0.0 0.00 0.00 0.00 56 1016.2
20260830234704 87 79 0.0 0.0 0.00 0.00 0.00 56 1016.2
20260830234204 87 84 1.0 3.0 0.00 0.00 0.00 55 1016.1
20260830233704 87 87 1.0 3.0 0.00 0.00 0.00 55 1016.2
20260830232704 87 224 2.0 5.0 0.00 0.00 0.00 55 1016.0
20260830232205 87 199 0.0 3.0 0.00 0.00 0.00 55 1015.9
20260830231705 88 228 1.0 6.0 0.00 0.00 0.00 54 1015.9
20260830231206 88 223 2.0 6.0 0.00 0.00 0.00 54 1015.8
20260830230205 88 217 2.0 8.0 0.00 0.00 0.00 54 1015.6
20260830225704 88 213 1.0 3.0 0.00 0.00 0.00 54 1015.6
20260830225204 88 224 1.0 3.0 0.00 0.00 0.00 54 1015.6
20260830224705 88 218 2.0 5.0 0.00 0.00 0.00 54 1015.7
20260830224204 88 222 1.0 2.0 0.00 0.00 0.00 53 1015.7
20260830223205 88 206 2.0 3.0 0.00 0.00 0.00 53 1015.7
20260830222704 88 213 0.0 2.0 0.00 0.00 0.00 52 1015.6
20260830222204 88 232 1.0 3.0 0.00 0.00 0.00 52 1015.6
20260830221704 88 209 1.0 3.0 0.00 0.00 0.00 52 1015.5
20260830221204 88 180 1.0 5.0 0.00 0.00 0.00 51 1015.5
20260830220705 88 191 1.0 5.0 0.00 0.00 0.00 51 1015.6
20260830215705 89 223 3.0 6.0 0.00 0.00 0.00 50 1015.7
20260830214705 89 216 1.0 6.0 0.00 0.00 0.00 49 1015.8
20260830214204 89 244 2.0 7.0 0.00 0.00 0.00 49 1015.8
20260830213705 90 205 1.0 6.0 0.00 0.00 0.00 49 1015.8
20260830213204 90 243 2.0 6.0 0.00 0.00 0.00 48 1015.8
20260830212704 90 220 1.0 3.0 0.00 0.00 0.00 48 1015.8
20260830212205 89 216 1.0 5.0 0.00 0.00 0.00 50 1015.8
20260830211705 89 90 1.0 5.0 0.00 0.00 0.00 50 1015.7
20260830210705 89 209 2.0 6.0 0.00 0.00 0.00 52 1015.9
20260830210204 89 215 1.0 5.0 0.00 0.00 0.00 51 1016.0
20260830205704 89 224 2.0 5.0 0.00 0.00 0.00 49 1016.1
20260830205204 89 193 2.0 5.0 0.00 0.00 0.00 50 1016.2
20260830204705 89 260 3.0 5.0 0.00 0.00 0.00 50 1016.3
20260830204203 90 231 1.0 5.0 0.00 0.00 0.00 50 1016.2
20260830203704 89 169 1.0 6.0 0.00 0.00 0.00 51 1016.3
20260830203204 89 249 0.0 6.0 0.00 0.00 0.00 51 1016.4
20260830202704 89 129 1.0 3.0 0.00 0.00 0.00 49 1016.5
20260830202205 89 270 0.0 2.0 0.00 0.00 0.00 50 1016.6
20260830201704 89 115 1.0 6.0 0.00 0.00 0.00 50 1016.7
20260830201204 89 215 2.0 6.0 0.00 0.00 0.00 51 1016.8
20260830200704 89 172 2.0 7.0 0.00 0.00 0.00 50 1016.9
20260830200204 89 213 1.0 5.0 0.00 0.00 0.00 51 1017.0
20260830195704 89 237 2.0 7.0 0.00 0.00 0.00 50 1017.0
20260830195203 89 222 0.0 6.0 0.00 0.00 0.00 51 1017.1
20260830194704 88 224 2.0 5.0 0.00 0.00 0.00 53 1017.2
20260830194204 88 242 2.0 6.0 0.00 0.00 0.00 52 1017.3
20260830193704 88 194 1.0 3.0 0.00 0.00 0.00 52 1017.4
20260830193204 88 222 1.0 3.0 0.00 0.00 0.00 51 1017.6
20260830192704 88 250 0.0 1.0 0.00 0.00 0.00 53 1017.6
20260830192205 88 255 0.0 2.0 0.00 0.00 0.00 52 1017.8
20260830191704 88 341 1.0 6.0 0.00 0.00 0.00 52 1017.8
20260830190205 88 210 3.0 8.0 0.00 0.00 0.00 52 1018.1
20260830185704 88 209 2.0 7.0 0.00 0.00 0.00 51 1018.2
20260830185206 88 227 3.0 9.0 0.00 0.00 0.00 50 1018.3
20260830184705 88 264 2.0 9.0 0.00 0.00 0.00 52 1018.4
20260830184204 88 258 3.0 7.0 0.00 0.00 0.00 52 1018.4
20260830183705 88 226 5.0 9.0 0.00 0.00 0.00 51 1018.5
20260830183204 88 346 3.0 8.0 0.00 0.00 0.00 52 1018.5
20260830182704 89 257 2.0 5.0 0.00 0.00 0.00 54 1018.5
20260830182205 89 245 2.0 5.0 0.00 0.00 0.00 54 1018.5
20260830181704 89 231 5.0 9.0 0.00 0.00 0.00 52 1018.6
20260830181205 89 204 5.0 9.0 0.00 0.00 0.00 51 1018.6
20260830180704 89 231 3.0 7.0 0.00 0.00 0.00 52 1018.7
20260830175704 89 215 5.0 10.0 0.00 0.00 0.00 49 1018.8
20260830175205 89 222 2.0 9.0 0.00 0.00 0.00 48 1018.8
20260830174705 89 263 2.0 6.0 0.00 0.00 0.00 50 1018.8
20260830174204 89 229 2.0 5.0 0.00 0.00 0.00 50 1018.9
20260830173704 89 206 3.0 8.0 0.00 0.00 0.00 48 1018.9
20260830172704 89 295 1.0 7.0 0.00 0.00 0.00 50 1019.1
20260830172205 89 211 6.0 12.0 0.00 0.00 0.00 49 1019.1
20260830170704 88 220 5.0 9.0 0.00 0.00 0.00 52 1019.1
20260830170204 88 267 3.0 7.0 0.00 0.00 0.00 53 1019.1
20260830165704 88 259 2.0 6.0 0.00 0.00 0.00 53 1019.1
20260830165204 88 259 5.0 8.0 0.00 0.00 0.00 54 1019.1
20260830164704 88 230 4.0 8.0 0.00 0.00 0.00 55 1019.1
20260830164204 88 227 3.0 6.0 0.00 0.00 0.00 57 1019.0
20260830163204 87 197 3.0 6.0 0.00 0.00 0.00 58 1019.0
20260830162705 87 220 3.0 9.0 0.00 0.00 0.00 58 1019.0
20260830162204 87 244 1.0 5.0 0.00 0.00 0.00 61 1019.0
20260830161704 87 221 2.0 5.0 0.00 0.00 0.00 60 1019.0
20260830161205 86 224 3.0 6.0 0.00 0.00 0.00 61 1019.0
20260830160704 86 142 2.0 6.0 0.00 0.00 0.00 63 1019.0
20260830160205 86 227 1.0 6.0 0.00 0.00 0.00 62 1019.0
20260830155704 85 216 1.0 6.0 0.00 0.00 0.00 63 1019.0
20260830155205 85 219 2.0 6.0 0.00 0.00 0.00 63 1019.1
20260830154704 85 224 2.0 7.0 0.00 0.00 0.00 64 1019.0
20260830154204 84 222 2.0 7.0 0.00 0.00 0.00 64 1019.1
20260830153204 84 195 1.0 6.0 0.00 0.00 0.00 66 1019.1
20260830152204 84 188 0.0 2.0 0.00 0.00 0.00 68 1018.9